Flag for Mexico Weather past 2 weeks in Cancún, Quintana Roo, Mexico

Now
82 °F

Passing clouds.


Feels Like: 89 °F
Forecast: 81 / 91 °F
Wind: 6 mph from East

Location: Cancun International Airport

Current Time: Aug 3, 2015 at 10:51:49 PM

Latest Report: Aug 3, 2015 at 9:48 PM


Visibility: 7 mi

Pressure: 30.00 "Hg

Humidity: 79%

Dew point: 75 °F

Location of CancúnLocation

Historic Weather in Cancún — Graph

°F

Cancún temperature yesterday

Maximum temperature yesterday: 90 °F (at 1:40 PM)
Minimum temperature yesterday: 73 °F (at 4:47 AM)
Average temperature yesterday: 82 °F

Past Weeks' High & Low Weather Summary

 TemperatureHumidityPressure
High91 °F (Jul 24, 2:43 PM)100% (Jul 20, 5:45 AM)30.09 "Hg (Jul 20, 5:45 AM)
Low72 °F (Jul 21, 5:46 AM)52% (Jul 26, 1:50 PM)29.91 "Hg (Aug 1, 5:43 PM)
Average82 °F82%29.99 "Hg
* Reported Jul 19 10:46 PM — Aug 3 9:48 PM, Cancún, Weather by CustomWeather, © 2015

Note: Actual official high and low records may vary slightly from our data, if they occured in-between our weather recording intervals... More about our weather records

Advertising

Cancún weather history for previous 24 hours

 ConditionsComfort  
Time TempWeatherWind HumidityBarometerVisibility
9:48 PM
Mon, Aug 3
82 °FPassing clouds.6 mph79%30.00 "Hg7 mi
6:49 PM84 °FScattered clouds.7 mph74%29.94 "Hg7 mi
5:45 PM86 °FBroken clouds.12 mph70%29.94 "Hg7 mi
4:49 PM86 °FBroken clouds.10 mph70%29.95 "Hg7 mi
2:47 PM88 °FBroken clouds.12 mph66%29.96 "Hg7 mi
12:43 PM79 °FBroken clouds.10 mph94%29.99 "Hg7 mi
11:47 AM88 °FScattered clouds.10 mph66%29.98 "Hg7 mi
10:40 AM88 °FScattered clouds.13 mph62%29.98 "Hg7 mi
9:42 AM88 °FScattered clouds.15 mph66%29.97 "Hg7 mi
8:41 AM86 °FScattered clouds.10 mph75%29.96 "Hg7 mi
7:47 AM84 °FScattered clouds.9 mph79%29.93 "Hg7 mi
6:45 AM81 °FPassing clouds.2 mph89%29.92 "Hg7 mi
5:40 AM81 °FPassing clouds.3 mph89%29.91 "Hg7 mi
4:40 AM81 °FPassing clouds.3 mph89%29.91 "Hg7 mi
3:47 AM81 °FPassing clouds.5 mph89%29.91 "Hg7 mi
2:41 AM81 °FPassing clouds.6 mph89%29.92 "Hg7 mi
1:40 AM82 °FPassing clouds.6 mph84%29.94 "Hg7 mi
12:41 AM82 °FPassing clouds.6 mph89%29.96 "Hg7 mi
11:51 PM
Sun, Aug 2
82 °FPassing clouds.7 mph84%29.97 "Hg7 mi
10:40 PM82 °FPassing clouds.6 mph84%29.96 "Hg7 mi
Weather by CustomWeather, © 2015

See weather overviewHow to use our weather pages